TimeMST,TemperatureF,Dew PointF,Humidity,Sea Level PressureIn,VisibilityMPH,Wind Direction,Wind SpeedMPH,Gust SpeedMPH,PrecipitationIn,Events,Conditions,WindDirDegrees,DateUTC
12:15 AM,-5.8,-7.6,92,30.54,10.0,North,6.9,-,N/A,,Clear,360,2013-01-17 07:15:00
12:55 AM,-9.4,-11.2,92,30.54,10.0,North,5.8,-,N/A,,Clear,10,2013-01-17 07:55:00
1:15 AM,-9.4,-11.2,92,30.54,10.0,North,9.2,-,N/A,,Clear,10,2013-01-17 08:15:00
1:35 AM,-9.4,-11.2,92,30.54,10.0,North,8.1,-,N/A,,Clear,10,2013-01-17 08:35:00
1:55 AM,-9.4,-11.2,92,30.54,10.0,North,10.4,-,N/A,,Clear,10,2013-01-17 08:55:00
2:15 AM,-9.4,-9.4,100,30.54,10.0,North,9.2,-,N/A,,Clear,360,2013-01-17 09:15:00
2:35 AM,-5.8,-7.6,92,30.55,10.0,North,6.9,-,N/A,,Clear,10,2013-01-17 09:35:00
2:55 AM,-7.6,-9.4,92,30.55,10.0,NNE,6.9,-,N/A,,Clear,20,2013-01-17 09:55:00
3:15 AM,-5.8,-7.6,92,30.56,10.0,NNE,4.6,-,N/A,,Clear,20,2013-01-17 10:15:00
3:35 AM,-5.8,-7.6,92,30.56,10.0,Calm,Calm,-,N/A,,Clear,0,2013-01-17 10:35:00
3:55 AM,-7.6,-9.4,92,30.55,10.0,NNE,5.8,-,N/A,,Clear,20,2013-01-17 10:55:00
4:15 AM,-9.4,-11.2,92,30.55,10.0,NNE,8.1,-,N/A,,Clear,20,2013-01-17 11:15:00
4:35 AM,-9.4,-11.2,92,30.55,10.0,North,11.5,-,N/A,,Clear,10,2013-01-17 11:35:00
4:55 AM,-11.2,-14.8,84,30.55,10.0,North,8.1,-,N/A,,Clear,10,2013-01-17 11:55:00
5:15 AM,-11.2,-14.8,84,30.55,10.0,North,9.2,-,N/A,,Clear,10,2013-01-17 12:15:00
5:35 AM,-9.4,-11.2,92,30.55,10.0,NNE,6.9,-,N/A,,Clear,30,2013-01-17 12:35:00
5:55 AM,-9.4,-11.2,92,30.54,10.0,ENE,5.8,-,N/A,,Clear,70,2013-01-17 12:55:00
6:16 AM,-9.4,-13.0,84,30.54,10.0,Calm,Calm,-,N/A,,Clear,0,2013-01-17 13:16:00
6:35 AM,-11.2,-14.8,84,30.55,10.0,Calm,Calm,-,N/A,,Clear,0,2013-01-17 13:35:00
6:55 AM,-11.2,-14.8,84,30.55,10.0,Calm,Calm,-,N/A,,Clear,0,2013-01-17 13:55:00
7:52 AM,-11.2,-16.6,77,30.55,10.0,Calm,Calm,-,N/A,,Clear,0,2013-01-17 14:52:00
8:56 AM,-9.4,-11.2,92,30.57,10.0,North,3.5,-,N/A,,Clear,10,2013-01-17 15:56:00
9:55 AM,-5.8,-7.6,92,30.58,10.0,East,6.9,-,N/A,,Clear,100,2013-01-17 16:55:00
10:51 AM,-2.2,-5.8,85,30.57,10.0,Calm,Calm,-,N/A,,Clear,0,2013-01-17 17:51:00
12:51 PM,6.8,3.2,85,30.50,10.0,Calm,Calm,-,N/A,,Clear,0,2013-01-17 19:51:00
2:11 PM,8.6,3.2,79,30.46,10.0,Calm,Calm,-,N/A,,Clear,0,2013-01-17 21:11:00
2:51 PM,10.4,5.0,79,30.44,10.0,Calm,Calm,-,N/A,,Clear,0,2013-01-17 21:51:00
3:51 PM,10.4,6.8,85,30.44,10.0,Calm,Calm,-,N/A,,Clear,0,2013-01-17 22:51:00
4:54 PM,6.8,1.4,79,30.44,10.0,Calm,Calm,-,N/A,,Clear,0,2013-01-17 23:54:00
5:55 PM,5.0,1.4,85,30.44,10.0,North,3.5,-,N/A,,Clear,360,2013-01-18 00:55:00
6:58 PM,-4.0,-5.8,92,30.43,10.0,North,9.2,-,N/A,,Clear,350,2013-01-18 01:58:00
7:51 PM,-2.2,-4.0,92,30.43,10.0,North,10.4,-,N/A,,Clear,360,2013-01-18 02:51:00
8:51 PM,-7.6,-9.4,92,30.42,10.0,North,6.9,-,N/A,,Clear,360,2013-01-18 03:51:00
8:55 PM,-7.6,-9.4,92,30.42,10.0,NE,4.6,-,N/A,,Clear,40,2013-01-18 03:55:00
9:15 PM,-5.8,-5.8,100,30.42,10.0,NNE,6.9,-,N/A,,Clear,20,2013-01-18 04:15:00
9:35 PM,-7.6,-9.4,92,30.43,10.0,North,8.1,-,N/A,,Clear,360,2013-01-18 04:35:00
9:55 PM,-7.6,-9.4,92,30.42,10.0,North,6.9,-,N/A,,Clear,10,2013-01-18 04:55:00
10:15 PM,-5.8,-7.6,92,30.42,10.0,NNE,5.8,-,N/A,,Clear,20,2013-01-18 05:15:00
10:35 PM,-5.8,-5.8,100,30.42,10.0,NNE,4.6,-,N/A,,Clear,20,2013-01-18 05:35:00
10:55 PM,-5.8,-5.8,100,30.42,10.0,ENE,3.5,-,N/A,,Clear,70,2013-01-18 05:55:00
11:15 PM,-5.8,-7.6,92,30.41,10.0,North,3.5,-,N/A,,Clear,10,2013-01-18 06:15:00
11:35 PM,-5.8,-7.6,92,30.42,10.0,North,9.2,-,N/A,,Clear,360,2013-01-18 06:35:00
11:55 PM,-5.8,-7.6,92,30.41,10.0,ENE,4.6,-,N/A,,Clear,60,2013-01-18 06:55:00